Date String (YYYY-MM-DD hh:mm:ss) UTC,Instrument flags,absolute air pressure of the measurement (hPa),sample flow rate (lpm),inlet stack bypass flow (lpm),air temperature of the measurement (°C),ambient temperature measured by the external sensor (°C),aerosol sample conditioner tube jacket temperature (°C),OPC LED temperature (°C),internal box temperature (°C),relative humidity of the measurement (%),span deviation,mass concentration of particles derived from Lorenz-Mie calculation of OPC scattering (μg/m³),mass concentration of particles derived from Lorenz-Mie calculation of OPC scattering (μg/m³),mass concentration of particles derived from Lorenz-Mie calculation of OPC scattering (μg/m³)
DateTimeUTC,F1_M11,P_M11,Q1_M11,Q2_M11,T1_M11,T2_M11,T3_M11,T4_M11,T5_M11,U1_M11,ZSPAN_M11,X2_M11,X0_M11,X1_M11
2024-01-29 12:00:00,SystemResetWarning,0837.2,5.00,000.00,022.6,021.4,000.0,031.0,024.0,14.8,0000.0,0000.75,0001.44,0000.55
2024-01-29 12:01:00,SystemResetWarning,0837.2,4.99,000.00,022.6,021.4,000.0,031.0,024.0,14.8,0000.0,0000.75,0001.46,0000.56
2024-01-29 12:02:00,SystemResetWarning,0837.2,4.99,000.00,022.6,021.4,000.0,031.0,024.0,14.8,0000.0,0000.76,0001.48,0000.58
2024-01-29 12:03:00,SystemResetWarning,0837.2,5.00,000.00,022.6,021.4,000.0,031.0,024.0,14.8,0000.0,0000.75,0001.46,0000.59
2024-01-29 12:04:00,SystemResetWarning,0837.2,5.01,000.00,022.6,021.4,000.0,031.0,024.0,14.8,0000.0,0000.75,0001.46,0000.59
2024-01-29 12:05:00,SystemResetWarning,0837.2,5.01,000.00,022.6,021.4,000.0,031.0,024.0,14.8,0000.0,0000.76,0001.46,0000.59
2024-01-29 12:06:00,SystemResetWarning,0837.2,5.00,000.00,022.6,021.4,000.0,031.0,024.0,14.8,0000.0,0000.73,0001.44,0000.58
2024-01-29 12:07:00,SystemResetWarning,0837.2,5.00,000.00,022.6,021.3,000.0,031.0,024.0,14.9,0000.0,0000.72,0001.46,0000.57
2024-01-29 12:08:00,SystemResetWarning,0837.2,5.00,000.00,022.6,021.3,000.0,031.0,023.9,14.9,0000.0,0000.72,0001.48,0000.57
2024-01-29 12:09:00,SystemResetWarning,0837.2,5.00,000.00,022.6,021.4,000.0,031.0,023.9,14.9,0000.0,0000.72,0001.54,0000.57
2024-01-29 12:10:00,SystemResetWarning,0837.2,5.00,000.00,022.6,021.4,000.0,030.9,023.9,14.9,0000.0,0000.65,0001.55,0000.56
2024-01-29 12:11:00,SystemResetWarning,0837.2,5.00,000.00,022.6,021.4,000.0,030.9,023.9,14.9,0000.0,0000.65,0001.39,0000.56
2024-01-29 12:12:00,SystemResetWarning,0837.2,5.00,000.00,022.6,021.4,000.0,030.9,023.9,14.9,0000.0,0000.64,0001.25,0000.56
2024-01-29 12:13:00,SystemResetWarning,0837.2,5.00,000.00,022.6,021.4,000.0,030.9,023.9,14.9,0000.0,0000.64,0001.24,0000.55
2024-01-29 12:14:00,SystemResetWarning,0837.2,5.00,000.00,022.6,021.3,000.0,030.9,023.9,15.0,0000.0,0000.64,0001.25,0000.56
2024-01-29 12:15:00,SystemResetWarning,0837.2,5.00,000.00,022.5,021.3,000.0,030.9,023.9,15.0,0000.0,0000.64,0001.25,0000.56
2024-01-29 12:16:00,SystemResetWarning,0837.2,5.00,000.00,022.5,021.3,000.0,030.9,023.9,15.0,0000.0,0000.65,0001.92,0000.55
2024-01-29 12:17:00,SystemResetWarning,0837.2,5.01,000.00,022.5,021.3,000.0,030.9,023.9,15.0,0000.0,0000.65,0002.53,0000.56
2024-01-29 12:18:00,SystemResetWarning,0837.2,5.01,000.00,022.5,021.3,000.0,030.9,023.9,15.0,0000.0,0000.65,0002.50,0000.56
2024-01-29 12:19:00,SystemResetWarning,0837.1,5.00,000.00,022.5,021.3,000.0,030.9,023.9,15.0,0000.0,0000.69,0002.77,0000.58
2024-01-29 12:20:00,SystemResetWarning,0837.1,5.00,000.00,022.5,021.3,000.0,030.9,023.9,15.1,0000.0,0000.74,0002.85,0000.62
2024-01-29 12:21:00,SystemResetWarning,0837.1,5.00,000.00,022.5,021.3,000.0,030.9,023.9,15.1,0000.0,0000.79,0002.68,0000.66
2024-01-29 12:22:00,SystemResetWarning,0837.0,5.00,000.00,022.5,021.3,000.0,030.8,023.9,15.1,0000.0,0000.79,0002.93,0000.69
2024-01-29 12:23:00,SystemResetWarning,0837.0,5.00,000.00,022.5,021.3,000.0,030.8,023.9,15.1,0000.0,0000.80,0003.04,0000.69
2024-01-29 12:24:00,SystemResetWarning,0836.9,5.00,000.00,022.5,021.3,000.0,030.8,023.8,15.1,0000.0,0000.82,0003.29,0000.70
2024-01-29 12:25:00,SystemResetWarning,0836.9,5.00,000.00,022.5,021.3,000.0,030.8,023.8,15.1,0000.0,0000.81,0003.29,0000.69
2024-01-29 12:26:00,SystemResetWarning,0837.0,5.01,000.00,022.5,021.3,000.0,030.8,023.8,15.2,0000.0,0000.82,0003.35,0000.68
2024-01-29 12:27:00,SystemResetWarning,0837.0,5.00,000.00,022.4,021.3,000.0,030.8,023.8,15.2,0000.0,0000.81,0002.80,0000.67
2024-01-29 12:28:00,SystemResetWarning,0837.0,5.00,000.00,022.4,021.3,000.0,030.8,023.8,15.2,0000.0,0000.79,0002.13,0000.65
2024-01-29 12:29:00,SystemResetWarning,0837.0,5.00,000.00,022.4,021.3,000.0,030.8,023.8,15.2,0000.0,0000.77,0002.10,0000.64
2024-01-29 12:30:00,SystemResetWarning,0837.0,5.00,000.00,022.4,021.3,000.0,030.8,023.8,15.2,0000.0,0000.70,0001.74,0000.59
2024-01-29 12:31:00,SystemResetWarning,0837.0,5.00,000.00,022.4,021.2,000.0,030.8,023.8,15.2,0000.0,0000.63,0001.62,0000.54
2024-01-29 12:32:00,SystemResetWarning,0837.0,5.00,000.00,022.4,021.2,000.0,030.8,023.8,15.2,0000.0,0000.57,0001.58,0000.49
2024-01-29 12:33:00,SystemResetWarning,0836.9,5.00,000.00,022.4,021.2,000.0,030.8,023.8,15.2,0000.0,0000.53,0001.21,0000.44
2024-01-29 12:34:00,SystemResetWarning,0836.9,5.00,000.00,022.4,021.2,000.0,030.8,023.8,15.2,0000.0,0000.50,0001.08,0000.42
2024-01-29 12:35:00,SystemResetWarning,0836.9,5.00,000.00,022.4,021.2,000.0,030.8,023.8,15.2,0000.0,0000.44,0000.75,0000.39
2024-01-29 12:36:00,SystemResetWarning,0836.9,4.99,000.00,022.4,021.2,000.0,030.8,023.8,15.2,0000.0,0000.41,0000.71,0000.36
2024-01-29 12:37:00,SystemResetWarning,0836.9,5.00,000.00,022.4,021.2,000.0,030.7,023.8,15.2,0000.0,0000.39,0000.65,0000.35
2024-01-29 12:38:00,SystemResetWarning,0836.9,5.00,000.00,022.4,021.2,000.0,030.7,023.8,15.2,0000.0,0000.39,0000.61,0000.35
2024-01-29 12:39:00,SystemResetWarning,0836.9,5.00,000.00,022.4,021.2,000.0,030.7,023.8,15.2,0000.0,0000.37,0000.55,0000.33
2024-01-29 12:40:00,SystemResetWarning,0836.9,5.00,000.00,022.4,021.2,000.0,030.7,023.8,15.2,0000.0,0000.36,0000.54,0000.32
2024-01-29 12:41:00,SystemResetWarning,0837.0,5.00,000.00,022.4,021.2,000.0,030.7,023.7,15.3,0000.0,0000.35,0000.52,0000.31
2024-01-29 12:42:00,SystemResetWarning,0836.9,5.00,000.00,022.4,021.2,000.0,030.7,023.7,15.3,0000.0,0000.34,0000.43,0000.30
2024-01-29 12:43:00,SystemResetWarning,0837.0,5.00,000.00,022.4,021.2,000.0,030.7,023.8,15.3,0000.0,0000.33,0000.40,0000.29
2024-01-29 12:44:00,SystemResetWarning,0837.0,5.00,000.00,022.4,021.2,000.0,030.7,023.7,15.3,0000.0,0000.34,0000.43,0000.29
2024-01-29 12:45:00,SystemResetWarning,0837.0,5.00,000.00,022.4,021.2,000.0,030.7,023.7,15.3,0000.0,0000.35,0000.46,0000.30
2024-01-29 12:46:00,SystemResetWarning,0837.0,5.00,000.00,022.4,021.2,000.0,030.7,023.7,15.3,0000.0,0000.37,0000.50,0000.31
2024-01-29 12:47:00,SystemResetWarning,0836.9,5.00,000.00,022.3,021.2,000.0,030.7,023.7,15.3,0000.0,0000.38,0000.53,0000.31
2024-01-29 12:48:00,SystemResetWarning,0836.9,5.00,000.00,022.4,021.2,000.0,030.7,023.8,15.3,0000.0,0000.37,0000.52,0000.30
2024-01-29 12:49:00,SystemResetWarning,0836.9,5.00,000.00,022.4,021.3,000.0,030.7,023.7,15.3,0000.0,0000.34,0000.48,0000.29
2024-01-29 12:50:00,SystemResetWarning,0836.9,4.99,000.00,022.4,021.2,000.0,030.7,023.7,15.3,0000.0,0000.33,0000.46,0000.29
2024-01-29 12:51:00,SystemResetWarning,0836.9,4.99,000.00,022.3,021.2,000.0,030.7,023.7,15.3,0000.0,0000.34,0000.47,0000.29
2024-01-29 12:52:00,SystemResetWarning,0836.9,5.00,000.00,022.3,021.2,000.0,030.7,023.7,15.3,0000.0,0000.33,0000.47,0000.29
2024-01-29 12:53:00,SystemResetWarning,0836.9,5.00,000.00,022.3,021.2,000.0,030.7,023.7,15.2,0000.0,0000.33,0000.46,0000.28
2024-01-29 12:54:00,SystemResetWarning,0836.9,5.00,000.00,022.3,021.2,000.0,030.7,023.7,15.2,0000.0,0000.32,0000.45,0000.27
2024-01-29 12:55:00,SystemResetWarning,0836.9,5.00,000.00,022.3,021.2,000.0,030.7,023.7,15.1,0000.0,0000.32,0000.45,0000.27
2024-01-29 12:56:00,SystemResetWarning,0836.9,5.00,000.00,022.3,021.2,000.0,030.7,023.7,15.0,0000.0,0000.29,0000.39,0000.26
2024-01-29 12:57:00,SystemResetWarning,0837.0,5.00,000.00,022.3,021.2,000.0,030.7,023.7,15.0,0000.0,0000.27,0000.35,0000.25
2024-01-29 12:58:00,SystemResetWarning,0837.0,5.00,000.00,022.3,021.2,000.0,030.7,023.7,15.0,0000.0,0000.29,0000.38,0000.24
2024-01-29 12:59:00,SystemResetWarning,0837.0,5.00,000.00,022.3,021.2,000.0,030.6,023.7,15.0,0000.0,0000.28,0000.35,0000.24
